This demonstration page uses our WeatherBlox Daily Observations layout. Learn more.

Left ArrowRight Arrow

39.92423, -83.80882

Hourly Observations for January 2, 2015

Temp ( °F °C ) Dew Point ( °F °C ) Humidity (%) Winds ( mph kmh ) Pressure ( in mb ) Visibility ( mi km ) Precip ( " mm )
12:56 am 00:56 Clear 28 -2.2 20 -6.6 72 72 SW 10 17 30.22 1024 10 16 0.00 0.00
1:56 am 01:56 Clear 25 -3.8 19 -7.2 78 78 SSW 8 13 30.23 1024 10 16 0.00 0.00
2:56 am 02:56 Clear 24 -4.4 19 -7.2 81 81 SSW 8 13 30.24 1024 10 16 0.00 0.00
3:56 am 03:56 Clear 26 -3.3 21 -6.1 81 81 SSW 9 15 30.27 1025 10 16 0.00 0.00
4:56 am 04:56 Clear 26 -3.3 21 -6.1 81 81 SSW 7 11 30.27 1025 10 16 0.00 0.00
5:56 am 05:56 Clear 24 -4.4 20 -6.6 85 85 SSW 6 9 30.27 1025 9 14 0.00 0.00
6:56 am 06:56 Mostly Cloudy 25 -3.8 20 -6.6 81 81 S 6 9 30.30 1026 9 14 0.00 0.00
7:56 am 07:56 Partly Cloudy 25 -3.8 21 -6.1 84 84 S 3 6 30.31 1026 9 14 0.00 0.00
8:56 am 08:56 Mostly Cloudy 28 -2.2 23 -5 81 81 S 3 6 30.33 1027 8 13 0.00 0.00
9:56 am 09:56 Mostly Cloudy 31 -0.5 25 -3.8 79 79 S 5 7 30.36 1028 8 13 0.00 0.00
10:56 am 10:56 Cloudy 32 0 24 -4.4 73 73 SSW 7 11 30.37 1028 8 13 0.00 0.00
11:56 am 11:56 Mostly Cloudy 34 1.1 22 -5.5 62 62 SW 8 13 30.36 1028 9 14 0.00 0.00
12:56 pm 12:56 Sunny 36 2.2 22 -5.5 57 57 SW 8 13 30.34 1027 9 14 0.00 0.00
1:56 pm 13:56 Sunny 37 2.7 22 -5.5 55 55 SSW 7 11 30.33 1027 9 14 0.00 0.00
2:56 pm 14:56 Sunny 38 3.3 22 -5.5 53 53 S 3 6 30.33 1027 9 14 0.00 0.00
3:56 pm 15:56 Sunny 39 3.8 23 -5 53 53 S 5 7 30.34 1027 9 14 0.00 0.00
4:56 pm 16:56 Sunny 37 2.7 22 -5.5 55 55 Calm 30.34 1027 10 16 0.00 0.00
5:56 pm 17:56 Clear 35 1.6 22 -5.5 60 60 S 5 7 30.36 1028 10 16 0.00 0.00
6:56 pm 18:56 Clear 32 0 23 -5 69 69 SSE 5 7 30.38 1029 10 16 0.00 0.00
7:56 pm 19:56 Clear 33 0.5 27 -2.7 79 79 S 5 7 30.38 1029 9 14 0.00 0.00
8:56 pm 20:56 Clear 32 0 28 -2.2 85 85 S 3 6 30.37 1028 9 14 0.00 0.00
9:56 pm 21:56 Clear 27 -2.7 25 -3.8 92 92 SSE 6 9 30.33 1027 7 11 0.00 0.00
10:56 pm 22:56 Clear with Mist and Fog 27 -2.7 26 -3.3 96 96 SSE 5 7 30.32 1027 6 10 0.00 0.00
11:56 pm 23:56 Mostly Cloudy with Mist and Fog 30 -1.1 29 -1.6 96 96 SSE 5 7 30.31 1026 6 10 0.00 0.00

Powered by AerisWeather